[[{"header":{"parameterUnit":"m.s-1","parameterCategory":1,"la1":30.2991,"la2":30.254,"lo1":-89.0895,"lo2":-89.0444,"dy":0.0017,"dx":0.0017,"nx":28,"ny":28,"refTime":"2024-07-09T03:00:00:Z","depth":0,"parameterNumber":2,"parameterNumberName":"U-component_of_WINDS"},"data":[0,0,0,0,0,0,0,0,0,0,0,0,0,0,0,0,0,0,0,0,0,0,0,0,0,0,0,0,0,0,0,0,0,0,0,0,0,0,0,0,0,0,0,0,0,0,0,0,0,0,0,0,0,0,0,0,0,0,2.5833,2.5834,0,2.5866,2.5867,2.5867,2.5813,2.5812,2.581,2.5808,2.584,2.5842,2.5845,0,0,0,0,0,0,0,0,0,0,0,0,0,2.572,2.5722,2.5833,2.5834,2.5834,2.5866,2.5867,2.5867,2.5814,2.5811,2.5809,2.5807,2.5839,2.5842,2.5845,0,0,0,0,0,0,0,0,0,0,0,0,0,2.5763,2.5723,2.5833,2.5811,2.581,2.5866,2.5867,2.5867,2.5814,2.5811,2.5809,2.5806,2.5838,2.5842,2.5845,2.5924,0,0,2.5857,2.5859,0,0,0,0,0,0,0,0,2.576,2.5767,2.5814,2.5813,2.5811,2.5833,2.5838,2.5886,2.5815,2.5812,2.5808,2.5805,2.584,2.5843,2.5855,2.5926,2.5927,2.5858,2.586,2.5861,2.5863,0,0,0,0,0,0,0,2.5757,2.5765,2.5846,2.5815,2.5813,2.5798,2.5802,2.5847,2.5841,2.5812,2.5809,2.5813,2.5838,2.5852,2.5856,2.5928,2.5857,2.5861,2.5863,2.5865,2.6061,2.6064,0,0,0,0,0,0,2.5757,2.5763,2.5845,2.5847,2.5778,2.5803,2.5806,2.5829,2.584,2.5839,2.5816,2.5811,2.5847,2.5851,2.5857,2.5947,2.5861,2.5865,2.5867,2.6058,2.6062,2.6065,0,0,0,0,0,0,2.5755,2.5765,2.5844,2.5804,2.5813,2.5808,2.5833,2.5831,2.5844,2.5843,2.5841,2.5831,2.5845,2.5851,2.5907,2.5947,2.5867,2.587,2.6055,2.6059,2.6063,2.613,0,0,0,0,0,0,2.5752,2.5765,2.5796,2.5805,2.5815,2.5895,2.5836,2.5833,2.5851,2.5845,2.5857,2.5856,2.5843,2.5902,2.5911,2.5951,2.5873,2.6051,2.6057,2.6062,2.6125,2.6137,2.6147,0,0,0,0,0,2.5748,2.5813,2.5798,2.5808,2.5854,2.5898,2.5903,2.5888,2.5855,2.5885,2.5884,2.5855,2.5942,2.5908,2.5918,2.596,2.6048,2.6055,2.6061,2.612,2.6134,2.6147,0,0,0,0,0,0,2.5809,2.5814,2.5797,2.5867,2.5882,2.5889,2.5926,2.5904,2.5929,2.5922,2.5901,2.5904,2.5963,2.5968,2.593,2.6035,2.5989,2.5998,2.603,2.6044,2.6055,2.6052,2.5876,0,0,0,0,0,2.583,2.5866,2.5869,2.5931,2.5939,2.5932,2.595,2.5937,2.5951,2.5957,2.596,2.5975,2.6005,2.6025,2.6053,2.6126,2.6126,2.6159,2.617,2.6179,2.6187,2.6222,2.6236,2.6086,2.6086,2.6086,0,0,2.5875,2.5883,2.5907,2.5943,2.5953,2.5989,2.5937,2.5979,2.6004,2.5963,2.6016,2.6019,2.6033,2.6097,2.6125,2.6102,2.6228,2.6188,2.6195,2.6197,2.6231,2.6245,2.6257,2.6091,2.609,2.6089,0,0,2.5974,2.5985,2.6036,2.6047,2.6063,2.6057,2.607,2.6079,2.6079,2.6132,2.6101,2.6131,2.6185,2.6195,2.6208,2.631,2.6283,2.6319,2.6377,2.6412,2.6424,2.6434,2.6468,2.648,2.6327,2.6327,2.6327,0,2.6027,2.6082,2.6065,2.6108,2.6123,2.6088,2.6138,2.615,2.6174,2.6185,2.616,2.6224,2.6232,2.6296,2.6321,2.6333,2.6344,2.6317,2.6423,2.6434,2.6443,2.6475,2.6488,2.6331,2.6331,2.633,2.633,0,2.6145,2.6183,2.6222,2.6246,2.6266,2.6313,2.6302,2.6324,2.6309,2.6305,2.6358,2.6366,2.6393,2.6408,2.6394,2.647,2.6455,2.6427,2.638,2.6462,2.6491,2.6503,2.6337,2.6336,2.6334,2.6333,0,0,2.6282,2.6296,2.631,2.6319,2.6334,2.6362,2.6406,2.6434,2.6452,2.647,2.6504,2.655,2.6523,2.6537,2.6524,2.6555,2.6632,2.6523,2.6523,2.654,2.6713,2.6732,2.6747,2.6616,2.6618,2.662,2.6711,0,2.6379,2.6455,2.644,2.6514,2.6547,2.6514,2.6552,2.6564,2.6562,2.6589,2.6586,2.6617,2.6581,2.6589,2.6619,2.6616,2.6666,2.661,2.6645,2.6647,2.664,2.6763,2.6784,2.6869,2.6723,2.6725,2.6726,0,2.6501,2.6523,2.66,2.6607,2.662,2.6655,2.6677,2.6705,2.6717,2.6713,2.6728,2.6709,2.675,2.6705,2.6761,2.6723,2.6737,2.6738,2.6741,2.6741,2.669,2.6764,2.6896,2.6908,2.6745,2.6743,2.6742,0,2.659,2.6639,2.6691,2.67,2.6711,2.6735,2.674,2.675,2.6767,2.6786,2.6796,2.6821,2.6834,2.6853,2.6839,2.6808,2.6897,2.685,2.6892,2.6893,2.6911,2.6909,2.7045,2.6924,2.6924,2.6924,2.6924,0,2.6698,2.6746,2.673,2.6762,2.6813,2.6796,2.6847,2.6849,2.6858,2.6887,2.6861,2.6889,2.6871,2.6898,2.6888,2.6934,2.6941,2.6937,2.6933,2.6938,2.6938,2.6945,2.6938,2.6927,2.6927,2.6926,2.6925,0,2.6805,2.6797,2.6851,2.6856,2.6858,2.6896,2.69,2.6928,2.6924,2.6962,2.697,2.6963,2.6992,2.6981,2.7014,2.7007,2.7065,2.7055,2.7061,2.7057,2.7099,2.7094,2.7241,2.7258,2.7129,2.7131,2.7132,0,2.6873,2.6909,2.6917,2.6936,2.6943,2.6973,2.6989,2.6974,2.6992,2.7008,2.7034,2.7061,2.7082,2.7131,2.7128,2.7152,2.714,2.719,2.7143,2.7146,2.7138,2.7134,2.7137,2.7199,2.72,2.7201,2.7202,0,2.6993,2.6987,2.7012,2.7036,2.7056,2.7074,2.7089,2.7106,2.709,2.7112,2.7142,2.7158,2.719,2.7217,2.7238,2.7242,2.7219,2.7217,2.7228,2.7232,2.7232,2.723,2.7083,2.7213,2.7212,2.7212,2.7211,2.7211,2.7081,2.711,2.712,2.7148,2.7158,2.7173,2.7199,2.7198,2.7223,2.7247,2.7237,2.7271,2.728,2.7306,2.7314,2.7339,2.7319,2.7335,2.7339,2.7342,2.7346,2.7231,2.7343,2.7343,2.7343,2.7342,2.7342,0,2.7197,2.7202,2.7228,2.725,2.7272,2.7249,2.7265,2.7284,2.7314,2.7326,2.7347,2.738,2.7406,2.7405,2.7428,2.7448,2.7438,2.7455,2.7452,2.7453,2.7364,2.7351,2.7462,2.7462,2.7462,2.7462,2.7462,2.7462,2.726,2.7307,2.7302,2.7353,2.7357,2.739,2.7401,2.7413,2.7422,2.7461,2.7482,2.7481,2.7487,2.751,2.7532,2.7531,2.754,2.756,2.7554,2.7471,2.7459,2.7448,2.7435,2.7562,2.7562,2.764,2.7641,2.7641]},{"header":{"parameterUnit":"m.s-1","parameterCategory":1,"la1":30.2991,"la2":30.254,"lo1":-89.0895,"lo2":-89.0444,"dy":0.0017,"dx":0.0017,"nx":28,"ny":28,"refTime":"2024-07-09T03:00:00:Z","depth":0,"parameterNumber":3,"parameterNumberName":"V-component_of_WINDS"},"data":[0,0,0,0,0,0,0,0,0,0,0,0,0,0,0,0,0,0,0,0,0,0,0,0,0,0,0,0,0,0,0,0,0,0,0,0,0,0,0,0,0,0,0,0,0,0,0,0,0,0,0,0,0,0,0,0,0,0,7.6482,7.6484,0,7.6612,7.6613,7.6614,7.6556,7.6552,7.6549,7.6546,7.6671,7.6677,7.6683,0,0,0,0,0,0,0,0,0,0,0,0,0,7.6174,7.618,7.6482,7.6484,7.6485,7.6611,7.6613,7.6615,7.6556,7.6552,7.6548,7.6545,7.6669,7.6676,7.6684,0,0,0,0,0,0,0,0,0,0,0,0,0,7.6306,7.6182,7.6482,7.6471,7.6472,7.6611,7.6613,7.6615,7.6557,7.6552,7.6547,7.6543,7.6666,7.6675,7.6685,7.6839,0,0,7.6714,7.6718,0,0,0,0,0,0,0,0,7.6298,7.6317,7.6471,7.6472,7.6473,7.6563,7.655,7.669,7.6558,7.6524,7.6546,7.654,7.6638,7.665,7.6684,7.6845,7.6851,7.6715,7.672,7.6724,7.6727,0,0,0,0,0,0,0,7.6289,7.6311,7.6533,7.6474,7.6475,7.6457,7.647,7.6576,7.6606,7.6527,7.6523,7.654,7.6638,7.6675,7.6687,7.6852,7.6714,7.6723,7.6729,7.6732,7.7141,7.7146,0,0,0,0,0,0,7.6281,7.6304,7.6529,7.6537,7.6372,7.6466,7.6481,7.6539,7.6605,7.6611,7.6543,7.6536,7.6661,7.6676,7.6691,7.6873,7.6724,7.6733,7.6739,7.7136,7.7143,7.7148,0,0,0,0,0,0,7.6275,7.6302,7.6524,7.6419,7.6446,7.6477,7.6541,7.6544,7.6581,7.6618,7.6622,7.6577,7.6658,7.6678,7.6802,7.6877,7.6737,7.6746,7.713,7.7138,7.7145,7.7241,0,0,0,0,0,0,7.6267,7.63,7.6362,7.6421,7.6452,7.6637,7.6546,7.655,7.6599,7.6591,7.665,7.6656,7.6656,7.6789,7.6812,7.6887,7.6753,7.7124,7.7134,7.7143,7.7231,7.7251,7.7268,0,0,0,0,0,7.6256,7.6383,7.6366,7.6393,7.6531,7.6641,7.6658,7.6658,7.6605,7.6665,7.6688,7.6654,7.6865,7.6802,7.6828,7.6907,7.7119,7.7131,7.7142,7.7223,7.7247,7.7268,0,0,0,0,0,0,7.633,7.6391,7.6372,7.6523,7.6578,7.6631,7.6707,7.6685,7.6753,7.6743,7.6737,7.6751,7.688,7.6906,7.6834,7.7057,7.6983,7.7001,7.7036,7.7059,7.7077,7.7067,7.6761,0,0,0,0,0,7.6364,7.6452,7.6499,7.6628,7.6656,7.6677,7.6725,7.6721,7.6776,7.6798,7.683,7.6882,7.6959,7.7011,7.7085,7.7235,7.7244,7.7302,7.732,7.7335,7.7349,7.7426,7.7451,7.7187,7.7186,7.7186,0,0,7.6435,7.6479,7.6535,7.6644,7.6685,7.6772,7.6697,7.6793,7.6857,7.6811,7.6931,7.6956,7.7014,7.7151,7.7213,7.7177,7.7424,7.735,7.7361,7.7368,7.7441,7.7466,7.7488,7.7194,7.7193,7.7192,0,0,7.6609,7.6653,7.6763,7.6806,7.6871,7.6883,7.691,7.6966,7.6982,7.7102,7.7069,7.7142,7.7278,7.7319,7.7358,7.7543,7.7513,7.7567,7.7663,7.7738,7.7758,7.7777,7.784,7.7863,7.7582,7.7582,7.7582,0,7.6689,7.6822,7.6822,7.6921,7.6967,7.6932,7.7041,7.7082,7.7166,7.7197,7.7156,7.7323,7.7359,7.7504,7.7549,7.7582,7.7609,7.756,7.7756,7.7774,7.7791,7.7851,7.7875,7.7588,7.7588,7.7587,7.7586,0,7.6914,7.7007,7.7088,7.7171,7.7227,7.7331,7.7342,7.7398,7.7388,7.7403,7.7524,7.7566,7.7646,7.768,7.7671,7.7822,7.7797,7.7757,7.7681,7.7823,7.7878,7.7902,7.7597,7.7595,7.7593,7.7591,0,0,7.714,7.7221,7.725,7.7286,7.7353,7.7423,7.7522,7.7602,7.7648,7.7707,7.7787,7.7901,7.7863,7.7907,7.7901,7.7967,7.8107,7.7917,7.7918,7.7948,7.8271,7.83,7.8327,7.8087,7.8092,7.8095,7.8265,0,7.7316,7.7494,7.7495,7.7656,7.7739,7.7705,7.7791,7.7839,7.7856,7.7925,7.7942,7.8022,7.7967,7.7993,7.8057,7.8076,7.8171,7.8064,7.8158,7.8162,7.8143,7.8357,7.8389,7.8547,7.8288,7.8291,7.8294,0,7.7546,7.7613,7.7784,7.7835,7.787,7.7948,7.8019,7.8087,7.8139,7.8146,7.8194,7.8177,7.8274,7.8197,7.8328,7.8255,7.8293,7.8308,7.8314,7.8321,7.8235,7.8367,7.8598,7.8621,7.8329,7.8326,7.8324,0,7.7689,7.7822,7.794,7.7972,7.8036,7.8091,7.8119,7.8167,7.8214,7.8275,7.8304,7.8376,7.8414,7.8468,7.8469,7.8414,7.86,7.8524,7.8605,7.8605,7.8644,7.8641,7.8882,7.8673,7.8673,7.8672,7.8672,0,7.7885,7.799,7.8005,7.8077,7.8192,7.819,7.8303,7.8326,7.8368,7.8441,7.8415,7.8484,7.8483,7.8551,7.8553,7.8658,7.8677,7.8682,7.8681,7.8683,7.8682,7.8707,7.8695,7.8679,7.8677,7.8676,7.8675,0,7.8064,7.8079,7.8205,7.8255,7.827,7.8352,7.8392,7.8459,7.8473,7.8565,7.8587,7.8607,7.8686,7.8693,7.8785,7.8785,7.8912,7.89,7.8895,7.8892,7.8972,7.8963,7.9235,7.9269,7.904,7.9042,7.9044,0,7.8187,7.8267,7.8325,7.8374,7.8406,7.8484,7.8531,7.8531,7.8581,7.8645,7.8703,7.878,7.8841,7.8968,7.8989,7.9058,7.9045,7.9136,7.9055,7.9054,7.9043,7.9037,7.9043,7.9151,7.9153,7.9155,7.9157,0,7.8403,7.8405,7.8477,7.855,7.8607,7.8664,7.8717,7.8757,7.8763,7.882,7.8901,7.8949,7.9042,7.9117,7.9184,7.9209,7.9183,7.9182,7.9204,7.9207,7.9199,7.9201,7.8935,7.9176,7.9174,7.9172,7.9171,7.9171,7.8556,7.8623,7.8675,7.8753,7.8793,7.8843,7.8907,7.8928,7.8997,7.9074,7.9069,7.9158,7.9203,7.9291,7.9321,7.9388,7.9357,7.939,7.9397,7.9405,7.9411,7.9191,7.94,7.94,7.9399,7.9399,7.9398,0,7.8767,7.8798,7.8871,7.8946,7.9006,7.8979,7.9035,7.9087,7.9166,7.9212,7.9273,7.9364,7.9436,7.9462,7.9531,7.9579,7.9569,7.9597,7.9592,7.9598,7.9437,7.941,7.9604,7.9604,7.9604,7.9604,7.9604,7.9604,7.8884,7.8997,7.9005,7.9135,7.9164,7.9252,7.9286,7.933,7.9366,7.947,7.953,7.9547,7.9584,7.9655,7.9718,7.9723,7.9749,7.9782,7.9782,7.963,7.961,7.959,7.9564,7.9788,7.9788,7.9937,7.9938,7.9939]}]]